CDG8003 ZSJN-RKSI

Flight info

Callsign CDG8003
Flight time 1h 16m
Altitude 37100
Route BASOV7Y BASOV W4 IKEKA A591 AGAVO/N0450F371 Y644 REBIT REBIT2H
Aircraft B738/M-SDE2E3FGHIRWXY/LB1

Departure

Time 2026-04-23 20:27
Airport Jinan Yaoqiang International Airport (ZSJN)

Arrival

Time 2026-04-23 21:44
Airport Incheon International Airport (RKSI)
Time Latitude Longitude Altitude Speed Heading
2026-04-23 19:59 36.85446 117.21040 83 ft 0 kts 334°
2026-04-23 20:17 36.85438 117.21045 83 ft 2 kts 334°
2026-04-23 20:17 36.85425 117.21053 83 ft 2 kts 334°
2026-04-23 20:18 36.85412 117.21061 83 ft 2 kts 334°
2026-04-23 20:18 36.85397 117.21067 83 ft 2 kts
2026-04-23 20:18 36.85383 117.21063 83 ft 2 kts 28°
2026-04-23 20:18 36.85371 117.21051 83 ft 1 kts 57°
2026-04-23 20:19 36.85368 117.21044 83 ft 1 kts 68°
2026-04-23 20:19 36.85367 117.21040 83 ft 0 kts 64°
2026-04-23 20:20 36.85368 117.21042 83 ft 1 kts 64°
2026-04-23 20:21 36.85386 117.21086 83 ft 10 kts 64°
2026-04-23 20:21 36.85426 117.21197 83 ft 17 kts 65°
2026-04-23 20:21 36.85503 117.21274 83 ft 15 kts 360°
2026-04-23 20:21 36.85635 117.21276 83 ft 20 kts 360°
2026-04-23 20:22 36.85774 117.21274 83 ft 19 kts 359°
2026-04-23 20:22 36.85906 117.21274 83 ft 18 kts
2026-04-23 20:22 36.86031 117.21274 83 ft 17 kts 359°
2026-04-23 20:22 36.86150 117.21272 83 ft 16 kts 359°
2026-04-23 20:23 36.86264 117.21274 83 ft 16 kts
2026-04-23 20:23 36.86406 117.21274 83 ft 24 kts 359°
2026-04-23 20:23 36.86578 117.21274 83 ft 22 kts 360°
2026-04-23 20:23 36.86697 117.21305 83 ft 16 kts 66°
2026-04-23 20:24 36.86778 117.21374 83 ft 15 kts 359°
2026-04-23 20:24 36.86879 117.21375 83 ft 14 kts
2026-04-23 20:24 36.86976 117.21375 83 ft 13 kts 359°
2026-04-23 20:24 36.87069 117.21374 83 ft 13 kts
2026-04-23 20:25 36.87178 117.21374 83 ft 18 kts 360°
2026-04-23 20:25 36.87310 117.21384 83 ft 16 kts 31°
2026-04-23 20:25 36.87343 117.21505 83 ft 14 kts 89°
2026-04-23 20:25 36.87309 117.21597 83 ft 0 kts 178°
2026-04-23 20:26 36.87151 117.21598 83 ft 55 kts 180°
2026-04-23 20:26 36.86552 117.21600 83 ft 115 kts 180°
2026-04-23 20:26 36.85577 117.21599 95 ft 162 kts 181°
2026-04-23 20:27 36.84421 117.21622 572 ft 169 kts 181°
2026-04-23 20:27 36.83266 117.21675 1340 ft 164 kts 182°
2026-04-23 20:27 36.82156 117.21748 2005 ft 161 kts 181°
2026-04-23 20:27 36.81047 117.22083 2466 ft 175 kts 154°
2026-04-23 20:28 36.80283 117.23343 2934 ft 197 kts 115°
2026-04-23 20:28 36.80195 117.25105 3392 ft 214 kts 82°
2026-04-23 20:28 36.80701 117.26869 3884 ft 222 kts 66°
2026-04-23 20:28 36.81221 117.28705 4376 ft 225 kts 82°
2026-04-23 20:29 36.81485 117.30608 4847 ft 233 kts 86°
2026-04-23 20:29 36.81620 117.32732 5084 ft 253 kts 85°
2026-04-23 20:29 36.82182 117.34878 5397 ft 272 kts 54°
2026-04-23 20:29 36.83593 117.36394 6037 ft 273 kts 24°
2026-04-23 20:30 36.85465 117.36993 6447 ft 282 kts 359°
2026-04-23 20:30 36.89405 117.36890 7711 ft 288 kts 356°
2026-04-23 20:30 36.91394 117.36867 8417 ft 289 kts 358°
2026-04-23 20:31 36.93420 117.36869 9116 ft 289 kts 358°
2026-04-23 20:31 36.95433 117.36878 9800 ft 290 kts 358°
2026-04-23 20:31 36.97438 117.36886 10393 ft 295 kts 359°
2026-04-23 20:31 36.99552 117.36890 10731 ft 309 kts 359°
2026-04-23 20:32 37.01733 117.36894 11042 ft 323 kts 359°
2026-04-23 20:32 37.04036 117.36898 11370 ft 337 kts 359°
2026-04-23 20:32 37.06419 117.36903 11751 ft 348 kts 359°
2026-04-23 20:32 37.08859 117.36908 12391 ft 352 kts 359°
2026-04-23 20:33 37.11321 117.36926 13099 ft 354 kts
2026-04-23 20:33 37.13780 117.37165 13774 ft 357 kts
2026-04-23 20:33 37.16243 117.37608 14462 ft 359 kts
2026-04-23 20:33 37.18713 117.38140 15104 ft 362 kts
2026-04-23 20:34 37.21198 117.38696 15758 ft 365 kts
2026-04-23 20:34 37.23686 117.39240 16407 ft 368 kts
2026-04-23 20:34 37.26199 117.39775 17081 ft 369 kts
2026-04-23 20:34 37.28763 117.40365 17637 ft 374 kts 12°
2026-04-23 20:35 37.31235 117.41440 18215 ft 379 kts 26°
2026-04-23 20:35 37.33385 117.43336 18782 ft 384 kts 42°
2026-04-23 20:35 37.35070 117.45918 19377 ft 388 kts 55°
2026-04-23 20:35 37.36343 117.48961 19861 ft 396 kts 66°
2026-04-23 20:36 37.37172 117.52257 20400 ft 400 kts 74°
2026-04-23 20:36 37.37716 117.55683 20943 ft 404 kts 78°
2026-04-23 20:36 37.38126 117.59143 21452 ft 407 kts 80°
2026-04-23 20:36 37.38502 117.62681 22004 ft 409 kts 80°
2026-04-23 20:37 37.38882 117.66248 22450 ft 413 kts 81°
2026-04-23 20:37 37.39277 117.69817 22957 ft 415 kts 80°
2026-04-23 20:37 37.39687 117.73382 23442 ft 417 kts 80°
2026-04-23 20:37 37.40117 117.76994 23911 ft 420 kts 79°
2026-04-23 20:38 37.40560 117.80624 24350 ft 423 kts 79°
2026-04-23 20:38 37.41010 117.84264 24823 ft 426 kts 79°
2026-04-23 20:38 37.41474 117.87986 25288 ft 428 kts 79°
2026-04-23 20:38 37.41931 117.91636 25729 ft 431 kts 79°
2026-04-23 20:39 37.42403 117.95394 26177 ft 433 kts 79°
2026-04-23 20:39 37.42871 117.99122 26589 ft 436 kts 79°
2026-04-23 20:39 37.43341 118.02873 26991 ft 438 kts 79°
2026-04-23 20:39 37.43813 118.06649 27411 ft 440 kts 79°
2026-04-23 20:40 37.44288 118.10464 27816 ft 442 kts 79°
2026-04-23 20:40 37.44760 118.14259 28193 ft 445 kts 79°
2026-04-23 20:40 37.45241 118.18136 28557 ft 448 kts 79°
2026-04-23 20:40 37.45717 118.21983 28942 ft 450 kts 79°
2026-04-23 20:41 37.46205 118.25890 29285 ft 452 kts 79°
2026-04-23 20:41 37.46699 118.29784 29695 ft 453 kts 79°
2026-04-23 20:41 37.47194 118.33662 30301 ft 449 kts 78°
2026-04-23 20:41 37.47683 118.37502 30791 ft 447 kts 78°
2026-04-23 20:42 37.48170 118.41325 31158 ft 448 kts 78°
2026-04-23 20:42 37.48663 118.45208 31513 ft 448 kts 78°
2026-04-23 20:42 37.49153 118.49082 31901 ft 448 kts 78°
2026-04-23 20:42 37.49647 118.52996 32268 ft 448 kts 79°
2026-04-23 20:43 37.50136 118.56893 32618 ft 448 kts 79°
2026-04-23 20:43 37.50620 118.60769 32966 ft 447 kts 79°
2026-04-23 20:43 37.51102 118.64631 33293 ft 447 kts 79°
2026-04-23 20:43 37.51584 118.68505 33618 ft 447 kts 79°
2026-04-23 20:44 37.52066 118.72391 33936 ft 447 kts 79°
2026-04-23 20:44 37.52537 118.76205 34224 ft 447 kts 79°
2026-04-23 20:44 37.53007 118.80090 34523 ft 446 kts 80°
2026-04-23 20:44 37.53384 118.83952 34755 ft 447 kts 82°
2026-04-23 20:45 37.53688 118.87824 34929 ft 449 kts 83°
2026-04-23 20:45 37.53961 118.91736 35115 ft 450 kts 83°
2026-04-23 20:45 37.54223 118.95667 35338 ft 450 kts 84°
2026-04-23 20:45 37.54484 118.99596 35541 ft 450 kts 83°
2026-04-23 20:46 37.54746 119.03470 35676 ft 452 kts 83°
2026-04-23 20:46 37.55016 119.07409 35862 ft 452 kts 83°
2026-04-23 20:46 37.55294 119.11388 36016 ft 453 kts 83°
2026-04-23 20:46 37.55572 119.15337 36148 ft 454 kts 83°
2026-04-23 20:47 37.55853 119.19287 36334 ft 454 kts 83°
2026-04-23 20:47 37.56132 119.23211 36494 ft 455 kts 83°
2026-04-23 20:47 37.56414 119.27167 36602 ft 456 kts 83°
2026-04-23 20:47 37.56697 119.31144 36791 ft 457 kts 83°
2026-04-23 20:48 37.56981 119.35133 36938 ft 457 kts 83°
2026-04-23 20:48 37.57262 119.39113 37064 ft 458 kts 83°
2026-04-23 20:48 37.57829 119.47170 37069 ft 460 kts 83°
2026-04-23 20:49 37.58381 119.55135 37071 ft 459 kts 83°
2026-04-23 20:49 37.58915 119.63159 37052 ft 458 kts 83°
2026-04-23 20:50 37.59452 119.71101 37055 ft 460 kts 84°
2026-04-23 20:50 37.60051 119.79134 37073 ft 459 kts 83°
2026-04-23 20:51 37.60660 119.87100 37066 ft 458 kts 83°
2026-04-23 20:51 37.61263 119.95087 37070 ft 460 kts 83°
2026-04-23 20:52 37.61854 120.03061 37067 ft 459 kts 83°
2026-04-23 20:52 37.62440 120.11084 37067 ft 459 kts 83°
2026-04-23 20:53 37.63020 120.19123 37067 ft 460 kts 83°
2026-04-23 20:53 37.63593 120.27132 37079 ft 460 kts 83°
2026-04-23 20:54 37.64161 120.35163 37063 ft 460 kts 83°
2026-04-23 20:54 37.64723 120.43186 37076 ft 462 kts 83°
2026-04-23 20:55 37.65150 120.51242 37069 ft 462 kts 89°
2026-04-23 20:55 37.64891 120.55318 37077 ft 464 kts 100°
2026-04-23 20:55 37.64078 120.59199 37074 ft 464 kts 108°
2026-04-23 20:56 37.61748 120.66805 37067 ft 465 kts 113°
2026-04-23 20:56 37.59183 120.74295 37059 ft 466 kts 114°
2026-04-23 20:57 37.56663 120.81757 37081 ft 466 kts 113°
2026-04-23 20:57 37.54221 120.89314 37074 ft 466 kts 112°
2026-04-23 20:58 37.51809 120.96893 37074 ft 466 kts 112°
2026-04-23 20:58 37.49387 121.04520 37063 ft 468 kts 112°
2026-04-23 20:59 37.46988 121.12064 37067 ft 468 kts 112°
2026-04-23 20:59 37.44574 121.19692 37082 ft 470 kts 111°
2026-04-23 21:00 37.42501 121.27454 37077 ft 469 kts 107°
2026-04-23 21:00 37.40620 121.35274 37076 ft 470 kts 107°
2026-04-23 21:01 37.38723 121.43132 37092 ft 473 kts 107°
2026-04-23 21:01 37.36772 121.51016 37086 ft 471 kts 108°
2026-04-23 21:02 37.34802 121.58842 37083 ft 470 kts 108°
2026-04-23 21:02 37.32808 121.66692 37087 ft 474 kts 109°
2026-04-23 21:03 37.30806 121.74532 37091 ft 472 kts 109°
2026-04-23 21:03 37.28792 121.82391 37109 ft 474 kts 109°
2026-04-23 21:04 37.26771 121.90248 37084 ft 474 kts 109°
2026-04-23 21:04 37.24744 121.98107 37102 ft 476 kts 109°
2026-04-23 21:05 37.22703 122.05991 37108 ft 475 kts 109°
2026-04-23 21:05 37.20669 122.13834 37099 ft 475 kts 109°
2026-04-23 21:06 37.18084 122.21408 37093 ft 472 kts 125°
2026-04-23 21:06 37.16033 122.24587 37095 ft 468 kts 139°
2026-04-23 21:06 37.13571 122.27257 37092 ft 466 kts 144°
2026-04-23 21:07 37.08626 122.32542 37093 ft 470 kts 133°
2026-04-23 21:07 37.06794 122.35947 37101 ft 475 kts 117°
2026-04-23 21:07 37.05584 122.39812 37101 ft 478 kts 109°
2026-04-23 21:08 37.03715 122.47797 37099 ft 479 kts 106°
2026-04-23 21:08 37.01988 122.55830 37099 ft 479 kts 107°
2026-04-23 21:09 37.00207 122.63861 37102 ft 480 kts 107°
2026-04-23 21:09 36.98356 122.71902 37105 ft 481 kts 108°
2026-04-23 21:10 36.96471 122.79907 37119 ft 482 kts 108°
2026-04-23 21:10 36.94581 122.87856 37115 ft 480 kts 109°
2026-04-23 21:11 36.92668 122.95861 37108 ft 482 kts 109°
2026-04-23 21:11 36.90754 123.03841 37108 ft 482 kts 109°
2026-04-23 21:12 36.88830 123.11839 37103 ft 481 kts 109°
2026-04-23 21:12 36.86893 123.19862 37103 ft 486 kts 109°
2026-04-23 21:13 36.85103 123.27926 37104 ft 483 kts 102°
2026-04-23 21:13 36.84754 123.32139 37102 ft 487 kts 90°
2026-04-23 21:13 36.85126 123.36291 37107 ft 489 kts 76°
2026-04-23 21:14 36.86175 123.40335 37104 ft 490 kts 65°
2026-04-23 21:14 36.87659 123.44154 37101 ft 488 kts 59°
2026-04-23 21:14 36.91169 123.51355 37096 ft 485 kts 54°
2026-04-23 21:15 36.94911 123.58325 37099 ft 486 kts 53°
2026-04-23 21:15 36.98678 123.65327 37092 ft 485 kts 54°
2026-04-23 21:16 37.02390 123.72344 37095 ft 485 kts 54°
2026-04-23 21:16 37.06083 123.79424 37091 ft 486 kts 55°
2026-04-23 21:17 37.09742 123.86486 37094 ft 486 kts 55°
2026-04-23 21:17 37.13418 123.93615 37090 ft 486 kts 56°
2026-04-23 21:18 37.16327 124.01245 37088 ft 487 kts 75°
2026-04-23 21:18 37.17265 124.09625 36954 ft 490 kts 87°
2026-04-23 21:19 37.17456 124.13864 36551 ft 486 kts 88°
2026-04-23 21:19 37.17584 124.18080 36016 ft 484 kts 89°
2026-04-23 21:19 37.17687 124.22241 35445 ft 485 kts 89°
2026-04-23 21:19 37.17785 124.26457 34767 ft 488 kts 88°
2026-04-23 21:20 37.17870 124.30703 34066 ft 491 kts 89°
2026-04-23 21:20 37.17949 124.35001 33468 ft 490 kts 88°
2026-04-23 21:20 37.18026 124.39250 32893 ft 489 kts 88°
2026-04-23 21:20 37.18105 124.43484 32313 ft 487 kts 88°
2026-04-23 21:21 37.18188 124.47701 31717 ft 486 kts 88°
2026-04-23 21:21 37.18273 124.51912 31127 ft 484 kts 87°
2026-04-23 21:21 37.18360 124.56090 30533 ft 482 kts 87°
2026-04-23 21:21 37.18448 124.60267 29882 ft 480 kts 87°
2026-04-23 21:22 37.18537 124.64394 29277 ft 476 kts 87°
2026-04-23 21:22 37.18626 124.68532 28679 ft 471 kts 88°
2026-04-23 21:22 37.18712 124.72568 28115 ft 467 kts 87°
2026-04-23 21:22 37.18798 124.76635 27515 ft 463 kts 88°
2026-04-23 21:23 37.18882 124.80594 26931 ft 450 kts 88°
2026-04-23 21:23 37.18959 124.84418 26412 ft 433 kts 88°
2026-04-23 21:23 37.19034 124.88123 25888 ft 419 kts 88°
2026-04-23 21:23 37.19105 124.91686 25370 ft 405 kts 88°
2026-04-23 21:24 37.19174 124.95145 24873 ft 392 kts 87°
2026-04-23 21:24 37.19238 124.98478 24413 ft 381 kts 87°
2026-04-23 21:24 37.19303 125.01775 23903 ft 379 kts 87°
2026-04-23 21:24 37.19368 125.05061 23411 ft 376 kts 87°
2026-04-23 21:25 37.19432 125.08330 23017 ft 370 kts 87°
2026-04-23 21:25 37.19492 125.11481 22473 ft 361 kts 87°
2026-04-23 21:25 37.19551 125.14631 21502 ft 365 kts 87°
2026-04-23 21:25 37.19609 125.17794 20461 ft 368 kts 87°
2026-04-23 21:26 37.19665 125.20985 19429 ft 370 kts 87°
2026-04-23 21:26 37.19719 125.24175 18406 ft 371 kts 87°
2026-04-23 21:26 37.19773 125.27372 17407 ft 370 kts 86°
2026-04-23 21:26 37.19825 125.30559 16405 ft 369 kts 86°
2026-04-23 21:27 37.19878 125.33756 15387 ft 367 kts 86°
2026-04-23 21:27 37.19929 125.36917 14468 ft 362 kts 86°
2026-04-23 21:27 37.19974 125.39993 14175 ft 339 kts 86°
2026-04-23 21:27 37.20015 125.42857 13911 ft 319 kts 86°
2026-04-23 21:28 37.20055 125.45547 13601 ft 304 kts 86°
2026-04-23 21:28 37.20215 125.48174 13191 ft 303 kts 77°
2026-04-23 21:28 37.20898 125.50639 12791 ft 302 kts 60°
2026-04-23 21:28 37.21981 125.52883 12387 ft 299 kts 54°
2026-04-23 21:29 37.23128 125.55036 11997 ft 295 kts 54°
2026-04-23 21:29 37.24245 125.57156 11599 ft 293 kts 55°
2026-04-23 21:29 37.25337 125.59295 11200 ft 291 kts 56°
2026-04-23 21:29 37.26409 125.61449 10805 ft 289 kts 56°
2026-04-23 21:30 37.27443 125.63563 10425 ft 286 kts 57°
2026-04-23 21:30 37.28471 125.65678 10193 ft 278 kts 57°
2026-04-23 21:30 37.29457 125.67697 10063 ft 268 kts 57°
2026-04-23 21:30 37.30423 125.69666 9776 ft 264 kts 57°
2026-04-23 21:31 37.31388 125.71631 9433 ft 262 kts 57°
2026-04-23 21:31 37.32330 125.73553 9114 ft 260 kts 57°
2026-04-23 21:31 37.33276 125.75494 8797 ft 257 kts 57°
2026-04-23 21:31 37.34237 125.77364 8414 ft 258 kts 55°
2026-04-23 21:32 37.35239 125.79215 8107 ft 255 kts 54°
2026-04-23 21:32 37.36240 125.81044 7794 ft 252 kts 54°
2026-04-23 21:32 37.37215 125.82845 7487 ft 250 kts 55°
2026-04-23 21:32 37.38191 125.84663 7183 ft 255 kts 56°
2026-04-23 21:33 37.39194 125.86530 6858 ft 256 kts 56°
2026-04-23 21:33 37.40181 125.88370 6543 ft 254 kts 56°
2026-04-23 21:33 37.41165 125.90208 6228 ft 251 kts 56°
2026-04-23 21:33 37.42128 125.92015 5922 ft 249 kts 56°
2026-04-23 21:34 37.43082 125.93806 5615 ft 247 kts 56°
2026-04-23 21:34 37.44046 125.95614 5308 ft 250 kts 56°
2026-04-23 21:34 37.45025 125.97445 4983 ft 253 kts 56°
2026-04-23 21:34 37.46000 125.99273 4671 ft 251 kts 56°
2026-04-23 21:35 37.46970 126.01088 4360 ft 250 kts 55°
2026-04-23 21:35 37.47937 126.02891 4048 ft 248 kts 55°
2026-04-23 21:35 37.48894 126.04674 3733 ft 247 kts 55°
2026-04-23 21:35 37.49846 126.06455 3424 ft 245 kts 55°
2026-04-23 21:36 37.51743 126.10017 2806 ft 243 kts 56°
2026-04-23 21:36 37.52674 126.11764 2500 ft 242 kts 56°
2026-04-23 21:36 37.53606 126.13510 2260 ft 238 kts 57°
2026-04-23 21:37 37.54509 126.15205 2176 ft 228 kts 57°
2026-04-23 21:37 37.55379 126.16836 2105 ft 217 kts 57°
2026-04-23 21:37 37.56198 126.18382 2045 ft 211 kts 57°
2026-04-23 21:37 37.57010 126.19915 1968 ft 212 kts 57°
2026-04-23 21:38 37.57847 126.21428 1977 ft 210 kts 56°
2026-04-23 21:38 37.58706 126.22933 1966 ft 210 kts 55°
2026-04-23 21:38 37.59556 126.24418 1967 ft 210 kts 55°
2026-04-23 21:38 37.60386 126.25961 1968 ft 209 kts 62°
2026-04-23 21:39 37.60785 126.27604 1962 ft 191 kts 92°
2026-04-23 21:39 37.60461 126.29136 1975 ft 176 kts 120°
2026-04-23 21:39 37.59719 126.30298 1968 ft 169 kts 136°
2026-04-23 21:39 37.58830 126.31252 1968 ft 167 kts 141°
2026-04-23 21:40 37.57894 126.32126 1979 ft 163 kts 143°
2026-04-23 21:40 37.56987 126.32941 1956 ft 157 kts 143°
2026-04-23 21:40 37.56115 126.33718 1935 ft 152 kts 143°
2026-04-23 21:40 37.55287 126.34454 1804 ft 140 kts 143°
2026-04-23 21:41 37.54474 126.35178 1680 ft 142 kts 143°
2026-04-23 21:41 37.53674 126.35890 1564 ft 141 kts 143°
2026-04-23 21:41 37.52865 126.36609 1443 ft 143 kts 143°
2026-04-23 21:41 37.52053 126.37331 1201 ft 142 kts 143°
2026-04-23 21:42 37.51254 126.38042 997 ft 140 kts 143°
2026-04-23 21:42 37.50450 126.38753 811 ft 142 kts 143°
2026-04-23 21:42 37.49649 126.39472 675 ft 141 kts 143°
2026-04-23 21:42 37.48831 126.40203 469 ft 143 kts 144°
2026-04-23 21:43 37.48013 126.40904 258 ft 144 kts 144°
2026-04-23 21:43 37.47190 126.41642 62 ft 144 kts 143°
2026-04-23 21:43 37.46408 126.42333 28 ft 119 kts 146°
2026-04-23 21:43 37.45900 126.42788 28 ft 63 kts 144°
2026-04-23 21:44 37.45660 126.43008 28 ft 31 kts 123°
2026-04-23 21:44 37.45581 126.43225 28 ft 21 kts 112°
2026-04-23 21:44 37.45552 126.43306 28 ft 7 kts 114°
2026-04-23 21:44 37.45526 126.43358 28 ft 6 kts 134°
2026-04-23 21:45 37.45497 126.43398 28 ft 6 kts 133°
2026-04-23 21:45 37.45468 126.43433 28 ft 5 kts 135°
2026-04-23 21:45 37.45430 126.43463 28 ft 9 kts 144°
2026-04-23 21:45 37.45345 126.43541 28 ft 21 kts 143°
2026-04-23 21:46 37.45208 126.43664 28 ft 26 kts 145°
2026-04-23 21:46 37.45047 126.43805 28 ft 28 kts 143°
2026-04-23 21:46 37.44918 126.43928 28 ft 13 kts 122°
2026-04-23 21:46 37.44942 126.44030 28 ft 12 kts 54°
2026-04-23 21:47 37.44992 126.44115 28 ft 11 kts 54°
2026-04-23 21:47 37.45014 126.44151 28 ft 0 kts 50°
2026-04-23 21:47 37.45054 126.44224 28 ft 21 kts 53°
2026-04-23 21:47 37.45115 126.44344 28 ft 10 kts 83°
2026-04-23 21:48 37.45092 126.44411 28 ft 7 kts 117°
2026-04-23 21:48 37.45068 126.44469 28 ft 6 kts 117°
2026-04-23 21:48 37.45061 126.44486 28 ft 0 kts 117°